This is the latest recevied weather packets stored in our database for station/object IZ0VWB-3. If no packets are shown the sender has not sent any weather packets the latest 10 day(s).
| Time | Temp. | Humidity | Pressure | Rain* | Wind** | Luminosity | Snow |
|---|---|---|---|---|---|---|---|
| 1777502297 | 14.44° C | 58% | 1003.6 hPa | 0 mm | - | - | - |
| 1777501695 | 13.89° C | 59% | 1003.4 hPa | 0 mm | - | - | - |
| 1777501096 | 13.89° C | 58% | 1003.4 hPa | 0 mm | - | - | - |
| 1777500497 | 14.44° C | 54% | 1003.2 hPa | 0 mm | - | - | - |
| 1777499896 | 14.44° C | 53% | 1003.2 hPa | 0 mm | - | - | - |
| 1777499297 | 14.44° C | 52% | 1003.1 hPa | 0 mm | - | - | - |
| 1777498696 | 14.44° C | 52% | 1003.2 hPa | 0 mm | - | - | - |
| 1777498097 | 14.44° C | 52% | 1003.2 hPa | 0 mm | - | - | - |
| 1777497497 | 15° C | 50% | 1003.1 hPa | 0 mm | - | - | - |
| 1777496898 | 15° C | 49% | 1003.1 hPa | 0 mm | - | - | - |
| 1777496296 | 15.56° C | 47% | 1003.1 hPa | 0 mm | - | - | - |
| 1777495696 | 15° C | 49% | 1003.1 hPa | 0 mm | - | - | - |
| 1777495097 | 15.56° C | 47% | 1003 hPa | 0 mm | - | - | - |
| 1777494498 | 15.56° C | 50% | 1002.9 hPa | 0 mm | - | - | - |
| 1777493896 | 16.11° C | 48% | 1002.9 hPa | 0 mm | - | - | - |
| 1777493297 | 15.56° C | 50% | 1002.8 hPa | 0 mm | - | - | - |
| 1777492696 | 15.56° C | 50% | 1002.8 hPa | 0 mm | - | - | - |
| 1777492097 | 15.56° C | 50% | 1002.7 hPa | 0 mm | - | - | - |
| 1777491496 | 16.11° C | 48% | 1002.6 hPa | 0 mm | - | - | - |
| 1777490897 | 16.67° C | 47% | 1002.6 hPa | 0 mm | - | - | - |
| 1777490297 | 16.67° C | 48% | 1002.5 hPa | 0 mm | - | - | - |
| 1777489697 | 16.67° C | 48% | 1002.3 hPa | 0 mm | - | - | - |
| 1777489098 | 17.22° C | 47% | 1002.2 hPa | 0 mm | - | - | - |
| 1777488496 | 17.22° C | 48% | 1002.3 hPa | 0 mm | - | - | - |
| 1777487897 | 16.67° C | 49% | 1002.1 hPa | 0 mm | - | - | - |
* Rain latest hour (hover to see other rain measurements)
** Current wind speed in m/s (hover to see current wind gust speed)